Showing default

VELOX 1, 40057

Orbit data source: Space-Track

VELOX 1, 40057 is a payload satellite owned by NTU (SG) in SSO that was launched on Mon, 30 Jun 2014 UTC via a PSLV launch vehicle from the Sirharikota (SRI). Payload-class satellites include a variety of spacecraft equipped with specific instruments for various scientific and technological missions. These include communications satellites like Starlink; space stations such as the ISS; scientific satellites like the Hubble; Earth observation satellites from companies like Planet Labs, Umbra, and HawkEye 360; GPS; miniature CubeSats for education and research; and military/defense satellites.

Loading next visibility...
Identifier
40057, 2014-034E
Orbit
SSO
Country
Flag of UnknownUnknown / SING
Related business
Manufacturer
NTU
Mission
Non-operational Amateur Technology
Bus & Motor
CUBESAT 3U, Unknown motor
Mass
4.25 kg wet, 4.25 kg dry
Launch date (UTC)
2014-06-30 (11 years ago)
Launch vehicle
PSLV
Launch site
Sirharikota (SRI)
Object type
Payload
Rocket body
Debris
Shape & HBR
Box + 4 Pan, 0.2 m
Radar Cross Section
0.092 m², Medium (>0.1 m² and < 1m²)

Expand to show TLE details & history
Last TLE update: 7 hours ago

TLE from 7 hours ago
0 VELOX 1
1 40057U 14034E   25261.33966137  .00004374  00000-0  41553-3 0  9991
2 40057  98.2767 146.2731 0009496  86.8183 273.4122 14.94026661605958
Epoch: 2025-09-18T08:09Z
TLE epoch observation values (Epoch: 2025-09-18T08:09:06.742Z)
Latitude
0.00001°
Longitude
26.49234°
Altitude
588.037 km
Speed
7.566 km/s
True Right ascension
09h 45m 05s
True Declination
0° 00' 00"
Sunlit
Object was in daylight at epoch
Visualization orbit readout
Latitude
Unknown
Longitude
Unknown
Altitude
Unknown
Speed
Unknown
Apparent Right ascension
Unknown
Apparent Declination
Unknown
Sunlit
N/A
Visualization observer readout
Local Sidereal Time
08:22:28
Azimuth
Unknown
Elevation
Unknown
Doppler factor
Unknown
Orbital elements
Apogee altitude
589.045 km
Perigee altitude
575.825 km
Semi-major axis
6,960.572 km
Eccentricity
0.00095
Inclination
98.2767°
RAAN
146.2731°
Arg. of periapsis
86.8183°
True anomaly
273.30357°
Mean anomaly
273.4122°
Eccentric anomaly
273.35789°
Mean motion
3.73745 °/min
Orbital period
96.32 mins
BSTAR
0.00041553
Loading maneuver chart data...
Computing Atmospheric mass density...
Loading historical data...
Loading historical data...
Loading historical data...
Loading historical data...
Loading historical data...
Loading historical data...
Loading historical data...
Other satellites on launch #34 in the year 2014 (2014-06-30 UTC)

Documentation

Showing up to 5 results
|